Location: Unspecified
(0.0000°N, 0.0000°E)
Time: 03:08:21
(UTC+00:00)

N. Korean satellite - Visible Passes

Search period start: 22 March 2023 00:00
Search period end: 01 April 2023 00:00
Orbit: 395 x 419 km, 97.3° (Epoch: 21 March)

Date Brightness Start Highest point End Pass type
(mag) Time Alt. Az. Time Alt. Az. Time Alt. Az.
22 Mar 7.1 05:29:42 10° NNW 05:32:22 27° W 05:35:01 10° SW visible
23 Mar 8.3 04:41:36 10° NE 04:44:18 28° E 04:47:00 10° SSE visible
24 Mar 6.8 05:24:57 10° NNW 05:27:46 33° W 05:30:35 10° SW visible
25 Mar 8.7 04:37:01 10° NE 04:39:30 23° E 04:42:00 10° SSE visible
26 Mar 6.5 05:19:49 10° N 05:22:45 42° W 05:25:41 10° SSW visible
27 Mar 9.1 04:32:05 10° NE 04:34:17 18° E 04:36:28 10° SSE visible
28 Mar 6.1 05:14:18 10° N 05:17:18 57° W 05:20:19 10° SSW visible
29 Mar 9.4 04:26:53 10° ENE 04:28:37 14° E 04:30:22 10° SE visible
30 Mar 6.0 05:08:22 10° N 05:11:25 79° WNW 05:14:29 10° SSW visible
31 Mar 9.7 04:21:37 10° E 04:22:33 11° ESE 04:23:28 10° ESE visible
